Location: Cahoon Acres
(40.8736°N, 111.8994°W)
Time: 10:02:35
(UTC+00:00)

SR - Pass Details

Date: 12 June 2020
Orbit: 583 x 872 km, 66.7° (Epoch: 03 July)

Event Time Altitude Azimuth Distance (km) Brightness Sun altitude
Rises 05:49:20 0° 311° (NW) 2,824 ? -22.0°
Reaches altitude 10° 05:52:25 10° 287° (WNW) 1,905 ? -22.2°
Maximum altitude 05:54:46 15° 253° (WSW) 1,619 ? -22.4°
Enters shadow 05:55:34 14° 240° (WSW) 1,655 ? -22.5°
Drops below altitude 10° 05:57:07 10° 219° (SW) 1,904 - -22.6°
Sets 06:00:13 0° 195° (SSW) 2,820 - -22.8°
